Theta_e
322 316 313 315 315 316 313 308 311 315 322 323 324 324 326 328 329 328 328 328 329 332 335 334 330 334 336 337 338 337 340 345 348 347 345 347 347 349 351 356 355 354 352 355
314 310 318 317 316 313 309 307 307 310 317 324 323 322 327 328 328 330 329 329 330 331 331 329 336 337 337 337 337 335 339 348 347 348 346 349 345 346 352 355 358 355 355 355
307 312 319 315 313 309 302 303 307 311 312 324 323 318 322 328 330 331 333 333 333 334 332 330 328 336 338 337 337 336 335 344 344 346 347 347 350 350 349 351 354 356 355 356
308 313 315 312 308 304 301 308 308 307 306 311 319 306 313 322 324 328 330 331 333 335 336 336 335 333 335 337 337 336 335 343 348 347 347 346 345 344 346 348 352 354 354 354
305 309 309 307 307 309 304 310 307 307 302 299 312 307 312 321 320 325 328 331 333 335 337 337 337 338 339 338 336 337 339 344 346 351 347 350 347 349 348 348 349 356 356 357
308 314 313 306 310 309 311 306 305 303 300 301 308 307 305 313 320 324 328 330 332 334 336 338 339 341 340 338 336 337 343 342 345 348 350 350 350 348 349 347 342 340 351 349
309 309 314 310 303 308 305 298 292 295 297 297 307 304 304 315 320 324 328 329 331 333 333 334 335 337 337 335 334 335 341 340 342 347 350 350 351 353 350 346 337 337 345 344
302 300 308 311 306 303 304 301 298 294 293 300 305 302 309 318 322 325 329 333 327 333 334 334 334 335 336 335 334 336 340 340 346 346 352 353 351 352 353 353 350 348 348 348
302 304 312 312 311 306 304 299 303 297 298 303 307 310 314 320 320 325 324 323 326 326 335 336 335 335 336 335 334 335 340 342 346 349 348 350 356 354 353 352 352 353 353 354
306 302 312 314 312 311 304 307 298 298 294 297 304 303 303 314 316 322 320 321 322 331 329 337 337 337 337 337 337 338 341 343 347 349 352 351 351 355 356 354 355 356 355 355
308 302 304 310 308 306 306 301 301 300 300 294 299 301 314 316 318 319 318 319 322 325 330 336 339 339 339 340 339 341 343 346 348 349 351 350 352 353 354 355 354 354 355 354
309 300 298 305 312 315 307 302 300 295 295 299 303 302 317 317 322 323 323 321 324 328 336 338 340 341 341 341 342 347 351 350 350 349 348 351 350 351 351 352 355 354 353 355
308 303 297 302 307 309 306 308 307 300 302 299 298 302 316 319 321 322 321 326 326 336 336 337 339 338 338 340 342 342 344 348 348 347 347 345 347 348 348 347 349 351 352 356
314 302 299 295 301 306 307 307 305 301 296 303 303 305 310 318 319 322 324 327 325 333 334 337 338 341 341 343 340 340 342 345 346 344 345 342 341 343 343 345 345 349 354 357
307 299 305 304 310 311 307 306 306 300 300 297 308 307 311 317 319 323 325 328 329 328 336 337 338 340 343 343 348 349 349 351 353 353 354 354 356 356 355 355 354 356 355 356
308 301 309 302 308 307 304 306 305 305 304 301 305 308 317 320 326 323 325 326 329 327 336 339 340 342 344 346 348 349 351 352 353 350 349 348 350 350 353 353 353 354 354 353
306 302 299 297 306 307 300 305 306 306 307 305 299 310 318 320 323 323 322 327 329 333 338 339 341 342 344 344 345 348 348 347 345 343 342 342 344 344 347 349 349 348 348 348
305 304 304 299 302 294 306 310 311 308 309 308 304 316 320 321 323 322 325 328 328 338 340 340 341 341 340 343 343 342 340 338 336 335 336 336 337 337 338 338 338 340 346 346
308 304 300 299 300 302 307 309 308 305 306 311 308 311 322 322 324 327 331 337 340 340 338 335 337 337 336 335 335 334 334 333 332 332 333 333 334 333 333 332 334 336 337 337
310 307 302 300 297 296 306 312 316 311 301 315 315 311 324 328 324 329 339 340 339 336 335 333 333 335 334 333 334 332 330 329 327 328 330 331 331 328 326 328 329 330 331 332
305 307 302 302 299 303 312 314 314 300 305 315 317 318 322 319 331 336 339 338 336 334 334 333 331 330 331 333 333 330 327 326 328 329 328 330 329 328 329 328 328 328 328 328
304 303 303 306 301 299 316 314 306 310 314 318 317 322 324 330 336 337 337 331 331 329 329 329 328 327 329 331 330 328 326 328 327 326 328 328 328 329 330 324 325 328 328 327
302 305 304 309 309 316 316 314 317 316 316 318 318 332 333 334 333 330 328 328 329 328 328 330 328 327 327 327 327 325 326 326 326 327 327 327 329 329 330 325 325 325 321 319
313 317 310 312 314 315 318 321 322 318 318 321 321 334 334 328 328 328 328 327 327 328 328 329 328 326 326 327 327 326 325 327 327 326 326 327 326 325 325 326 325 320 319 317
312 314 314 312 316 319 321 320 322 320 319 319 322 329 331 328 328 329 327 327 328 328 329 329 328 326 325 324 325 327 328 327 324 323 323 320 321 321 320 321 319 320 318 316
313 309 308 308 315 315 318 321 325 321 320 319 318 319 331 330 327 329 328 328 328 328 329 328 326 324 324 326 326 326 325 323 321 321 320 318 318 318 319 318 318 318 314 313
Wind_Speed
13 14 13 21 17 17 18 6 11 7 11 26 23 13 13 12 10 16 14 13 16 17 16 15 14 11 12 8 6 5 5 3 6 3 3 2 4 3 2 4 8 7 7 8
8 3 18 12 14 15 14 6 7 5 5 26 17 12 11 12 14 12 17 15 13 9 14 15 15 13 12 10 10 6 4 5 5 4 2 3 3 4 3 3 7 7 7 7
9 10 14 8 14 14 6 6 6 10 6 16 18 5 7 6 10 13 14 13 14 14 13 14 16 17 14 11 10 8 8 8 6 7 3 3 1 2 2 1 3 7 7 9
10 13 10 10 10 5 3 7 4 4 8 12 6 3 5 3 7 14 15 15 15 17 17 17 17 15 18 14 10 10 8 8 7 8 4 6 4 4 4 4 3 4 10 9
14 9 8 8 7 3 6 8 4 5 6 2 6 8 4 5 8 10 15 16 15 17 19 19 21 19 16 16 14 13 13 11 8 8 9 5 5 4 4 3 1 2 9 11
13 13 6 2 5 5 7 7 7 6 3 5 4 7 11 9 19 5 8 13 14 16 17 18 19 18 16 16 16 15 15 14 13 11 10 8 8 6 4 3 1 2 6 10
16 13 13 3 6 9 7 3 4 6 4 7 9 7 9 5 3 2 5 1 12 15 15 15 17 17 16 18 19 16 17 16 15 14 14 11 10 8 7 4 4 3 5 10
5 9 9 8 9 6 8 5 7 3 6 5 7 2 5 12 17 15 8 10 10 15 15 18 19 18 20 20 22 20 21 18 18 17 13 13 12 7 5 4 4 5 6 12
3 7 4 7 4 2 10 6 7 2 3 10 4 3 4 11 19 18 16 20 21 8 20 20 21 20 20 20 23 21 19 20 19 18 14 10 7 8 7 7 5 4 5 6
4 4 8 12 6 7 7 8 7 6 2 6 3 3 6 8 17 19 14 20 30 9 22 17 14 19 18 19 18 19 16 20 19 17 13 11 10 7 7 6 6 5 5 1
3 3 5 4 3 6 6 6 4 1 3 5 5 0 7 11 16 20 16 25 24 31 19 8 5 7 11 18 17 14 12 13 12 12 9 7 6 7 6 6 6 6 6 6
3 2 4 3 5 6 5 9 3 6 10 4 7 2 7 7 12 25 30 32 25 30 11 8 8 8 8 6 15 11 12 12 11 10 8 10 7 7 7 7 9 8 7 7
5 3 5 5 9 11 5 7 4 4 6 1 7 4 6 6 8 13 3 12 8 12 10 8 9 8 8 8 10 8 9 9 9 9 10 8 9 8 8 8 8 9 8 8
5 3 4 4 7 4 9 8 8 5 6 1 4 7 6 11 14 10 14 17 3 3 9 8 7 7 7 7 8 8 6 6 1 4 2 6 6 3 6 5 6 5 7 8
4 4 2 9 11 14 6 5 8 5 5 4 9 15 18 21 21 17 11 6 5 12 11 10 8 7 7 9 11 10 8 8 8 7 7 7 6 5 6 4 3 4 4 2
3 5 2 7 10 9 5 9 3 6 4 2 7 9 16 14 2 13 17 7 7 10 10 10 10 8 9 9 9 9 7 7 10 9 8 7 7 7 6 6 6 6 5 6
4 6 2 7 9 6 3 9 3 4 6 6 6 8 22 17 15 18 11 11 10 13 15 11 10 10 10 8 7 9 10 10 10 9 8 9 9 8 8 7 6 5 3 2
6 3 1 6 4 2 9 5 4 4 1 6 3 24 27 29 26 18 9 15 12 17 12 9 10 11 10 10 10 10 9 8 8 7 7 7 7 7 7 7 7 7 6 6
5 3 2 3 2 5 7 6 8 5 6 5 5 6 25 18 12 8 18 18 15 16 14 14 11 12 13 11 8 9 8 7 7 6 6 5 6 6 6 7 7 5 6 5
9 7 5 4 3 5 8 5 6 5 4 6 6 6 18 17 14 8 20 21 17 16 17 16 15 13 11 7 8 8 7 7 6 5 4 4 4 4 4 4 4 3 3 5
7 5 5 5 5 6 5 2 6 5 8 3 6 10 11 9 15 18 19 16 15 17 17 15 12 9 8 7 8 8 7 6 3 4 3 3 2 3 2 2 2 3 4 5
6 4 5 4 5 13 2 6 2 9 4 5 6 7 9 15 23 21 17 16 17 19 18 16 13 10 7 7 8 7 7 3 4 3 3 3 1 2 2 3 4 5 5 5
5 6 6 7 7 7 2 5 9 4 5 5 10 14 19 21 21 19 18 19 16 17 14 13 12 9 7 7 7 7 3 4 2 3 2 3 4 3 3 3 5 3 5 5
12 13 5 8 11 7 9 10 24 8 6 7 9 17 22 23 22 21 20 17 14 12 14 13 12 9 7 6 6 7 5 2 3 3 5 6 5 6 6 5 5 3 5 5
4 10 9 5 17 14 13 7 8 15 6 6 6 14 22 25 22 22 18 17 15 15 11 11 10 8 7 7 7 6 6 7 5 6 5 6 5 6 6 5 4 3 1 2
3 7 6 8 9 2 11 17 3 12 8 5 4 5 22 22 21 21 18 14 15 16 15 13 9 9 7 7 7 7 7 7 4 5 4 4 4 4 4 4 5 7 4 6
Wind_Direction
275 122 243 236 217 251 270 207 152 159 149 135 207 148 147 137 127 148 156 162 178 190 180 170 170 147 147 164 171 201 161 150 132 135 152 230 246 234 243 168 166 156 185 172
299 132 237 251 281 281 277 117 144 139 167 129 147 142 151 150 151 162 159 169 180 173 154 167 142 150 165 175 193 161 175 166 163 158 194 195 209 233 203 189 180 169 164 170
261 223 212 244 275 285 316 88 153 166 190 123 114 113 155 151 150 167 167 172 175 173 166 171 171 169 173 184 198 171 184 202 195 193 186 219 240 302 332 229 171 178 183 179
266 263 218 254 268 347 48 337 360 316 130 154 151 180 332 220 190 174 175 178 184 181 184 181 186 192 183 185 184 178 192 197 195 200 197 201 202 208 221 221 179 165 174 173
259 282 279 243 265 4 266 304 302 282 275 148 81 82 278 337 243 198 180 185 184 179 180 183 186 193 183 182 185 182 192 194 199 197 203 205 207 217 231 220 12 258 190 172
264 277 275 306 311 305 257 273 293 275 217 69 202 108 216 225 204 189 182 181 166 162 174 181 182 188 194 186 186 187 182 197 201 204 209 196 211 233 228 123 120 205 46 20
268 244 256 185 280 283 261 284 307 352 3 186 180 118 222 205 99 58 353 139 174 175 175 176 176 179 186 183 186 189 186 197 204 208 206 202 204 221 244 172 209 239 123 192
272 304 216 200 212 241 293 188 169 206 237 156 142 49 360 58 55 49 20 347 352 190 178 177 187 183 184 183 186 191 186 197 200 205 203 202 207 208 214 212 185 224 190 186
178 305 279 162 251 31 297 347 253 260 261 109 59 27 254 37 38 40 9 334 292 293 182 183 189 191 187 185 188 191 183 193 195 199 204 203 183 197 203 210 201 238 254 140
220 178 240 269 193 273 194 240 347 342 36 107 87 189 203 60 60 29 24 319 296 324 296 191 192 195 190 194 190 191 186 187 192 193 194 199 199 197 203 193 211 213 241 256
42 37 284 40 38 308 344 315 326 115 118 157 149 280 167 155 145 148 143 237 249 256 266 108 82 162 180 193 190 187 176 169 180 186 189 188 192 204 203 206 212 218 219 234
186 196 296 190 85 21 300 294 300 118 297 38 117 45 118 150 169 173 183 208 237 254 91 93 74 58 61 109 175 144 141 154 168 177 172 199 195 201 206 207 221 219 213 208
343 333 3 12 7 342 306 292 8 354 79 24 108 213 181 178 179 236 271 275 309 87 85 80 73 73 73 64 92 111 125 155 171 178 199 197 192 197 205 201 211 230 208 208
74 267 202 184 205 258 291 323 354 34 83 225 162 149 184 156 173 192 226 254 303 258 115 101 94 86 86 92 98 105 99 95 140 143 219 223 211 247 235 230 275 258 228 209
151 236 299 296 179 229 238 306 322 349 323 90 171 151 178 180 176 185 221 216 338 317 131 126 106 105 95 75 73 75 66 68 74 76 62 49 79 87 78 87 34 25 25 52
210 278 306 296 291 284 255 279 237 264 269 293 163 159 183 180 198 171 213 215 260 293 142 128 132 113 92 84 84 81 83 67 69 65 52 40 39 36 55 48 31 21 9 17
178 166 199 256 266 297 23 282 2 18 44 75 52 155 165 178 189 207 199 202 220 234 123 137 129 114 101 100 92 70 71 66 62 58 46 38 33 31 23 20 14 5 4 6
324 355 189 240 329 310 249 313 10 319 22 6 29 147 171 177 192 201 197 187 210 129 129 111 110 101 89 84 85 84 77 73 70 60 47 35 33 27 19 21 13 9 1 345
293 309 303 130 256 255 303 323 50 89 344 9 46 48 171 186 188 199 191 162 132 118 107 103 106 105 98 93 91 86 76 74 66 59 53 39 37 26 15 5 351 356 6 354
307 252 161 297 212 238 246 306 120 105 336 317 341 176 142 122 105 125 113 116 115 105 113 111 105 103 104 111 104 96 90 78 62 48 39 39 57 28 344 343 13 344 347 330
280 317 235 245 236 260 192 349 342 107 217 46 36 124 139 134 145 141 125 119 118 125 122 113 103 101 112 118 109 99 90 76 57 33 6 38 37 351 28 32 327 314 314 318
232 220 230 260 286 289 310 340 88 229 172 117 115 94 116 117 126 128 124 118 113 110 106 104 100 93 81 81 94 97 91 82 46 354 336 1 339 317 327 337 307 314 320 343
273 216 218 184 217 201 343 320 272 111 161 110 113 123 118 121 125 122 117 117 118 119 116 112 112 106 94 86 92 104 112 85 8 335 337 302 288 273 281 300 330 14 66 57
340 21 342 25 351 286 193 7 334 114 88 112 118 136 129 131 132 126 126 128 127 122 125 126 125 123 130 132 106 120 120 115 12 16 350 350 24 24 16 22 15 37 57 41
316 324 324 334 12 354 79 146 208 297 116 66 79 129 143 142 142 139 138 137 135 132 137 136 129 130 131 117 105 98 93 76 45 7 48 37 39 38 27 31 25 31 45 124
312 311 334 320 353 317 301 330 242 223 133 124 111 101 150 149 148 142 140 135 124 116 114 110 114 119 127 117 101 82 88 87 63 45 44 68 57 28 32 13 347 338 299 290